When you browse on this site, cookies collect data to enhance your experience and personalize the content and advertising you see.
Visit our Privacy Policy to learn more. By continuing to use the site, you agree to this use of cookies and data.
  • In Czech Republic
  • List of Countries
  • For 7 days
  • Water Temperature
  • Weather Map
  • Weather Widgets
  • user-avatar
    Login

    Hourly Weather Titovka

    Today, 4 June, Thursday

    Time Temperature Precipitation Wind Pressure Humidity
    00:00 +8°C° 0 mm 2 mps 740 mmHg 92%
    01:00 +8°C° 0 mm 2 mps 740 mmHg 93%
    02:00 +8°C° 0 mm 1 mps 740 mmHg 94%
    03:00 +8°C° 0 mm 1 mps 740 mmHg 95%
    04:00 +8°C° 0 mm 1 mps 740 mmHg 95%
    05:00 +8°C° 0 mm 1 mps 740 mmHg 96%
    06:00 +9°C° 0 mm 2 mps 740 mmHg 90%
    07:00 +12°C° 0 mm 2 mps 740 mmHg 85%
    08:00 +13°C° 0 mm 2 mps 740 mmHg 80%
    09:00 +13°C° 0 mm 3 mps 739 mmHg 75%
    10:00 +14°C° 0 mm 3 mps 739 mmHg 70%
    11:00 +15°C° 0 mm 4 mps 739 mmHg 65%
    12:00 +15°C° 0.3 mm 4 mps 739 mmHg 66%
    13:00 +17°C° 0.3 mm 4 mps 739 mmHg 67%
    14:00 +17°C° 0.3 mm 4 mps 738 mmHg 68%
    15:00 +17°C° 0.3 mm 4 mps 738 mmHg 70%
    16:00 +17°C° 0.3 mm 4 mps 738 mmHg 71%
    17:00 +17°C° 0.3 mm 4 mps 738 mmHg 72%
    18:00 +14°C° 0.5 mm 3 mps 738 mmHg 78%
    19:00 +13°C° 0.5 mm 3 mps 738 mmHg 84%
    20:00 +12°C° 0.5 mm 2 mps 738 mmHg 89%
    21:00 +12°C° 0 mm 2 mps 738 mmHg 91%
    22:00 +10°C° 0 mm 2 mps 738 mmHg 92%
    23:00 +10°C° 0 mm 2 mps 738 mmHg 93%

    Tomorrow, 5 June, Friday

    Time Temperature Precipitation Wind Pressure Humidity
    00:00 +9°C° 0.1 mm 2 mps 738 mmHg 94%
    01:00 +9°C° 0.1 mm 2 mps 738 mmHg 94%
    02:00 +8°C° 0.1 mm 2 mps 738 mmHg 95%
    03:00 +8°C° 0 mm 2 mps 738 mmHg 95%
    04:00 +8°C° 0 mm 2 mps 738 mmHg 96%
    05:00 +9°C° 0 mm 1 mps 738 mmHg 96%
    06:00 +10°C° 0 mm 2 mps 738 mmHg 91%
    07:00 +13°C° 0 mm 2 mps 739 mmHg 86%
    08:00 +15°C° 0 mm 2 mps 739 mmHg 80%
    09:00 +17°C° 0 mm 2 mps 739 mmHg 73%
    10:00 +18°C° 0 mm 2 mps 739 mmHg 66%
    11:00 +20°C° 0 mm 3 mps 739 mmHg 58%
    12:00 +20°C° 0 mm 3 mps 740 mmHg 58%
    13:00 +21°C° 0 mm 3 mps 740 mmHg 58%
    14:00 +22°C° 0 mm 3 mps 740 mmHg 58%
    15:00 +21°C° 0.4 mm 4 mps 740 mmHg 66%
    16:00 +21°C° 0.4 mm 4 mps 740 mmHg 75%
    17:00 +20°C° 0.4 mm 5 mps 740 mmHg 83%
    18:00 +19°C° 0.1 mm 4 mps 740 mmHg 86%
    19:00 +18°C° 0.1 mm 4 mps 740 mmHg 90%
    20:00 +17°C° 0.1 mm 3 mps 740 mmHg 93%
    21:00 +16°C° 0.1 mm 3 mps 741 mmHg 94%
    22:00 +15°C° 0.1 mm 4 mps 741 mmHg 94%
    23:00 +15°C° 0.1 mm 4 mps 741 mmHg 95%

    Day after tomorrow, 6 June, Saturday

    Time Temperature Precipitation Wind Pressure Humidity
    00:00 +14°C° 0.1 mm 4 mps 741 mmHg 95%
    01:00 +14°C° 0.1 mm 4 mps 741 mmHg 95%
    02:00 +14°C° 0.1 mm 4 mps 741 mmHg 96%
    03:00 +14°C° 0 mm 3 mps 741 mmHg 95%
    04:00 +14°C° 0 mm 3 mps 741 mmHg 95%
    05:00 +14°C° 0 mm 3 mps 741 mmHg 95%
    06:00 +17°C° 0 mm 4 mps 742 mmHg 91%
    07:00 +18°C° 0 mm 4 mps 742 mmHg 88%
    08:00 +20°C° 0 mm 4 mps 743 mmHg 85%
    09:00 +21°C° 0 mm 5 mps 743 mmHg 81%
    10:00 +21°C° 0 mm 5 mps 744 mmHg 78%
    11:00 +22°C° 0 mm 5 mps 744 mmHg 74%
    12:00 +22°C° 0.2 mm 5 mps 744 mmHg 74%
    13:00 +23°C° 0.2 mm 5 mps 744 mmHg 74%
    14:00 +23°C° 0.2 mm 5 mps 745 mmHg 74%
    15:00 +23°C° 0.5 mm 4 mps 745 mmHg 76%
    16:00 +22°C° 0.5 mm 4 mps 745 mmHg 78%
    17:00 +22°C° 0.5 mm 4 mps 745 mmHg 81%
    18:00 +21°C° 0.5 mm 3 mps 745 mmHg 84%
    19:00 +20°C° 0.5 mm 3 mps 746 mmHg 87%
    20:00 +19°C° 0.5 mm 2 mps 746 mmHg 91%
    21:00 +18°C° 0 mm 2 mps 746 mmHg 91%
    22:00 +18°C° 0 mm 1 mps 747 mmHg 92%
    23:00 +16°C° 0 mm 1 mps 747 mmHg 93%

    7 June, Sunday

    Time Temperature Precipitation Wind Pressure Humidity
    00:00 +16°C° 0 mm 1 mps 748 mmHg 92%
    01:00 +16°C° 0 mm 1 mps 748 mmHg 92%
    02:00 +15°C° 0 mm 1 mps 748 mmHg 92%
    03:00 +15°C° 0 mm 1 mps 748 mmHg 93%
    04:00 +16°C° 0 mm 2 mps 748 mmHg 93%
    05:00 +16°C° 0 mm 2 mps 748 mmHg 94%
    06:00 +17°C° 0 mm 3 mps 748 mmHg 92%
    07:00 +19°C° 0 mm 3 mps 748 mmHg 89%
    08:00 +21°C° 0 mm 4 mps 749 mmHg 87%
    09:00 +22°C° 0.4 mm 4 mps 749 mmHg 82%
    10:00 +23°C° 0.4 mm 4 mps 749 mmHg 78%
    11:00 +26°C° 0.4 mm 5 mps 749 mmHg 73%
    12:00 +26°C° 0.8 mm 5 mps 749 mmHg 70%
    13:00 +27°C° 0.8 mm 5 mps 748 mmHg 67%
    14:00 +27°C° 0.8 mm 5 mps 748 mmHg 64%
    15:00 +27°C° 0 mm 4 mps 748 mmHg 65%
    16:00 +27°C° 0 mm 4 mps 748 mmHg 66%
    17:00 +27°C° 0 mm 4 mps 748 mmHg 68%
    18:00 +25°C° 0 mm 4 mps 748 mmHg 72%
    19:00 +23°C° 0 mm 4 mps 748 mmHg 77%
    20:00 +21°C° 0 mm 4 mps 748 mmHg 81%
    21:00 +20°C° 0 mm 4 mps 748 mmHg 84%
    22:00 +20°C° 0 mm 3 mps 749 mmHg 87%
    23:00 +19°C° 0 mm 3 mps 749 mmHg 90%

    8 June, Monday

    Time Temperature Precipitation Wind Pressure Humidity
    00:00 +18°C° 0 mm 3 mps 749 mmHg 91%
    01:00 +17°C° 0 mm 3 mps 749 mmHg 92%
    02:00 +17°C° 0 mm 3 mps 749 mmHg 93%
    03:00 +17°C° 0 mm 3 mps 749 mmHg 94%
    04:00 +17°C° 0 mm 3 mps 749 mmHg 94%
    05:00 +17°C° 0 mm 2 mps 749 mmHg 94%
    06:00 +19°C° 0 mm 3 mps 749 mmHg 90%
    07:00 +21°C° 0 mm 3 mps 749 mmHg 86%
    08:00 +22°C° 0 mm 3 mps 749 mmHg 82%
    09:00 +25°C° 0 mm 3 mps 749 mmHg 75%
    10:00 +26°C° 0 mm 4 mps 749 mmHg 68%
    11:00 +28°C° 0 mm 4 mps 749 mmHg 61%
    12:00 +28°C° 0 mm 5 mps 749 mmHg 60%
    13:00 +28°C° 0 mm 5 mps 749 mmHg 59%
    14:00 +28°C° 0 mm 5 mps 748 mmHg 58%
    15:00 +28°C° 0.3 mm 5 mps 748 mmHg 62%
    16:00 +27°C° 0.3 mm 4 mps 748 mmHg 67%
    17:00 +27°C° 0.3 mm 4 mps 748 mmHg 71%
    18:00 +25°C° 0 mm 4 mps 748 mmHg 76%
    19:00 +24°C° 0 mm 3 mps 748 mmHg 80%
    20:00 +21°C° 0 mm 3 mps 748 mmHg 85%
    21:00 +21°C° 0 mm 3 mps 748 mmHg 87%
    22:00 +20°C° 0 mm 3 mps 748 mmHg 90%
    23:00 +19°C° 0 mm 3 mps 749 mmHg 92%

    9 June, Tuesday

    Time Temperature Precipitation Wind Pressure Humidity
    00:00 +19°C° 0.1 mm 3 mps 748 mmHg 93%
    01:00 +19°C° 0.1 mm 4 mps 748 mmHg 93%
    02:00 +19°C° 0.1 mm 4 mps 748 mmHg 93%
    03:00 +19°C° 0 mm 4 mps 748 mmHg 93%
    04:00 +19°C° 0 mm 4 mps 748 mmHg 93%
    05:00 +19°C° 0 mm 4 mps 748 mmHg 92%
    06:00 +20°C° 0 mm 4 mps 748 mmHg 88%
    07:00 +22°C° 0 mm 5 mps 749 mmHg 84%
    08:00 +23°C° 0 mm 5 mps 749 mmHg 79%
    09:00 +26°C° 0.1 mm 5 mps 749 mmHg 74%
    10:00 +27°C° 0.1 mm 6 mps 749 mmHg 69%
    11:00 +28°C° 0.1 mm 6 mps 749 mmHg 64%
    12:00 +28°C° 0.9 mm 6 mps 749 mmHg 66%
    13:00 +28°C° 0.9 mm 6 mps 748 mmHg 68%
    14:00 +28°C° 0.9 mm 5 mps 748 mmHg 70%
    15:00 +28°C° 0.5 mm 5 mps 748 mmHg 71%
    16:00 +28°C° 0.5 mm 4 mps 748 mmHg 72%
    17:00 +28°C° 0.5 mm 4 mps 748 mmHg 73%
    18:00 +26°C° 0.1 mm 4 mps 748 mmHg 77%
    19:00 +25°C° 0.1 mm 4 mps 748 mmHg 80%
    20:00 +23°C° 0.1 mm 4 mps 748 mmHg 84%
    21:00 +22°C° 0 mm 3 mps 748 mmHg 86%
    22:00 +22°C° 0 mm 3 mps 749 mmHg 87%
    23:00 +21°C° 0 mm 3 mps 749 mmHg 89%
    Show more